DECAYED

PEGASUS DEB, 39928 (Decayed)

Orbit data source: Space-Track

PEGASUS DEB, 39928 was space debris in LEO originally from a launch on Thu, 19 May 1994 UTC launched from the Air Force Western Test Range (AFWTR). Debris objects in space refer to the collection of defunct objects orbiting the Earth. Examples of debris include non-operational satellites, rocket bodies, and fragments generated from explosions, collisions, or faulty payload assembly.

Not visible in the next 10 days
Identifier
39928, 1994-029AGB
Orbit
Decayed
Country
Flag of USUS
Related business
Manufacturer
Unknown
Mission
Decayed spacecraft
Bus & Motor
Unknown
Mass
Unknown
Launch date (UTC)
1994-05-19 (32 years ago)
Launch vehicle
Unknown
Launch site
Air Force Western Test Range (AFWTR)
Object type
Payload
Rocket body
Debris
Shape & HBR
Unknown shape, 0.1 m
Radar Cross Section
Small (<0.1 m²)

Expand to show TLE details & history
Last TLE update: 6 months ago

TLE from 6 months ago
0 PEGASUS DEB
1 39928U 94029AGB 26017.21150649  .00624883  00000-0  67014-2 0  9990
2 39928  80.9942 353.9996 0037613 192.4429 167.5899 15.61045927614163
Epoch: 2026-01-17T05:04Z
TLE epoch observation values (Epoch: 2026-01-17T05:04:34.160Z)
Latitude
-0.00006°
Longitude
161.21757°
Altitude
412.581 km
Speed
7.649 km/s
True Right ascension
23h 35m 59s
True Declination
0° 00' 00"
Sunlit
Object was in daylight at epoch
Visualization orbit readout
Latitude
Unknown
Longitude
Unknown
Altitude
Unknown
Speed
Unknown
Apparent Right ascension
Unknown
Apparent Declination
Unknown
Sunlit
N/A
Visualization observer readout
Local Sidereal Time
15:44:59
Azimuth
Unknown
Elevation
Unknown
Doppler factor
Unknown
Orbital elements
Apogee altitude
407.048 km
Perigee altitude
356.197 km
Semi-major axis
6,759.76 km
Eccentricity
0.00376
Inclination
80.9942°
RAAN
353.9996°
Arg. of periapsis
192.4429°
True anomaly
167.6821°
Mean anomaly
167.5899°
Eccentric anomaly
167.63604°
Mean motion
3.90523 °/min
Orbital period
92.18 mins
BSTAR
0.0067014
Loading maneuver chart data...
Computing Atmospheric mass density...
Loading historical data...
Loading historical data...
Loading historical data...
Loading historical data...
Loading historical data...
Loading historical data...
Loading historical data...

Documentation

Showing up to 5 results
|